| time (UTC) | temp F | wind direction | speed MPH | gust MPH | rain 1hr in | rain 24hr in | rain mn in | humidity % | barometer mb |
| 20260504231550 | 74 | 87 | 1.0 | 11.0 | 0.00 | 0.00 | 0.00 | 54 | 1008.4 |
| 20260504230056 | 74 | 239 | 3.0 | 8.0 | 0.00 | 0.00 | 0.00 | 53 | 1008.5 |
| 20260504224546 | 75 | 223 | 2.0 | 12.0 | 0.00 | 0.00 | 0.00 | 54 | 1008.7 |
| 20260504223055 | 75 | 224 | 1.0 | 10.0 | 0.00 | 0.00 | 0.00 | 56 | 1008.8 |
| 20260504221550 | 76 | 224 | 3.0 | 8.0 | 0.00 | 0.00 | 0.00 | 53 | 1008.7 |
| 20260504220053 | 75 | 231 | 2.0 | 8.0 | 0.00 | 0.00 | 0.00 | 55 | 1009.0 |
| 20260504214606 | 75 | 229 | 1.0 | 5.0 | 0.00 | 0.00 | 0.00 | 55 | 1009.1 |
| 20260504213059 | 76 | 205 | 2.0 | 7.0 | 0.00 | 0.00 | 0.00 | 55 | 1009.2 |
| 20260504211552 | 74 | 232 | 4.0 | 7.0 | 0.00 | 0.00 | 0.00 | 55 | 1009.4 |
| 20260504210051 | 74 | 305 | 1.0 | 10.0 | 0.00 | 0.00 | 0.00 | 55 | 1009.3 |
| 20260504204551 | 74 | 297 | 4.0 | 11.0 | 0.00 | 0.00 | 0.00 | 55 | 1009.5 |
| 20260504203053 | 75 | 188 | 3.0 | 9.0 | 0.00 | 0.00 | 0.00 | 60 | 1009.6 |
| 20260504201603 | 74 | 245 | 3.0 | 9.0 | 0.00 | 0.00 | 0.00 | 61 | 1010.1 |
| 20260504200047 | 72 | 210 | 2.0 | 11.0 | 0.00 | 0.00 | 0.00 | 62 | 1010.4 |
| 20260504194552 | 72 | 253 | 3.0 | 10.0 | 0.00 | 0.00 | 0.00 | 61 | 1010.7 |
| 20260504193050 | 71 | 229 | 2.0 | 10.0 | 0.00 | 0.00 | 0.00 | 64 | 1010.7 |
| 20260504191559 | 71 | 282 | 1.0 | 8.0 | 0.00 | 0.00 | 0.00 | 61 | 1010.6 |
| 20260504190115 | 70 | 276 | 5.0 | 11.0 | 0.00 | 0.00 | 0.00 | 61 | 1010.6 |
| 20260504184620 | 68 | 246 | 3.0 | 9.0 | 0.00 | 0.00 | 0.00 | 63 | 1010.7 |
| 20260504183052 | 67 | 221 | 2.0 | 10.0 | 0.00 | 0.00 | 0.00 | 65 | 1010.7 |
| 20260504181551 | 67 | 211 | 3.0 | 9.0 | 0.00 | 0.00 | 0.00 | 66 | 1010.4 |
| 20260504180053 | 67 | 221 | 3.0 | 12.0 | 0.00 | 0.00 | 0.00 | 67 | 1010.4 |
| 20260504174554 | 68 | 212 | 3.0 | 13.0 | 0.00 | 0.00 | 0.00 | 65 | 1010.9 |
| 20260504173054 | 70 | 175 | 1.0 | 7.0 | 0.00 | 0.00 | 0.00 | 64 | 1010.9 |
| 20260504171554 | 69 | 243 | 3.0 | 10.0 | 0.00 | 0.00 | 0.00 | 63 | 1011.3 |
| 20260504140106 | 57 | 222 | 3.0 | 11.0 | 0.00 | 0.00 | 0.00 | 75 | 1012.4 |
| 20260504120108 | 53 | 184 | 2.0 | 10.0 | 0.00 | 0.00 | 0.00 | 72 | 1012.6 |
| 20260504081550 | 51 | 171 | 3.0 | 7.0 | 0.00 | 0.00 | 0.00 | 68 | 1013.2 |
| 20260504044551 | 51 | 162 | 1.0 | 4.0 | 0.00 | 0.00 | 0.00 | 70 | 1014.9 |
| 20260504043051 | 51 | 150 | 1.0 | 4.0 | 0.00 | 0.00 | 0.00 | 70 | 1014.8 |
| 20260504041549 | 51 | 136 | 1.0 | 4.0 | 0.00 | 0.00 | 0.00 | 71 | 1015.1 |
| 20260504040049 | 51 | 158 | 0.0 | 3.0 | 0.00 | 0.00 | 0.00 | 71 | 1015.2 |
| 20260504034546 | 51 | 0 | 0.0 | 0.0 | 0.00 | 0.00 | 0.00 | 71 | 1015.3 |
| 20260504033059 | 51 | 0 | 0.0 | 3.0 | 0.00 | 0.00 | 0.00 | 71 | 1015.5 |
| 20260504031558 | 51 | 131 | 1.0 | 2.0 | 0.00 | 0.00 | 0.00 | 71 | 1015.2 |
| 20260504030051 | 52 | 143 | 0.0 | 2.0 | 0.00 | 0.00 | 0.00 | 69 | 1015.6 |
| 20260504024556 | 53 | 163 | 0.0 | 3.0 | 0.00 | 0.00 | 0.00 | 66 | 1015.7 |
| 20260504023053 | 55 | 194 | 1.0 | 9.0 | 0.00 | 0.00 | 0.00 | 58 | 1015.7 |
| 20260504021551 | 55 | 150 | 1.0 | 3.0 | 0.00 | 0.00 | 0.00 | 56 | 1015.3 |
| 20260504020051 | 55 | 133 | 1.0 | 4.0 | 0.00 | 0.00 | 0.00 | 54 | 1015.3 |
| 20260504014542 | 55 | 140 | 1.0 | 3.0 | 0.00 | 0.00 | 0.00 | 53 | 1015.3 |
| 20260504013049 | 55 | 134 | 0.0 | 3.0 | 0.00 | 0.00 | 0.00 | 54 | 1015.2 |
| 20260504011549 | 55 | 161 | 1.0 | 4.0 | 0.00 | 0.00 | 0.00 | 52 | 1015.2 |
| 20260504010047 | 55 | 148 | 1.0 | 3.0 | 0.00 | 0.00 | 0.00 | 51 | 1014.8 |
| 20260504004559 | 55 | 130 | 1.0 | 3.0 | 0.00 | 0.00 | 0.00 | 50 | 1014.7 |
| 20260504003049 | 56 | 131 | 0.0 | 2.0 | 0.00 | 0.00 | 0.00 | 50 | 1014.6 |
| 20260504001549 | 57 | 195 | 1.0 | 5.0 | 0.00 | 0.00 | 0.00 | 47 | 1014.7 |
| 20260504000051 | 57 | 165 | 0.0 | 3.0 | 0.00 | 0.00 | 0.00 | 46 | 1015.1 |
| 20260503234549 | 58 | 0 | 0.0 | 5.0 | 0.00 | 0.00 | 0.00 | 45 | 1015.5 |
| 20260503233047 | 58 | 244 | 0.0 | 5.0 | 0.00 | 0.00 | 0.00 | 44 | 1015.5 |